Regional Weather Roundup
Issued by NWS Albany, NY

Home | Current Version | Previous Version | Text Only | Print | Product List | Glossary On
Versions: 1 2 3 4 5 6 7 8 9 10 11 12 13 14 15 16 17 18 19 20 21 22 23 24 25 26 27
000
ASUS41 KALY 221210
RWRALY

NEW YORK STATE HOURLY WEATHER ROUNDUP
NATIONAL WEATHER SERVICE ALBANY NY
700 AM EST SUN JAN 22 2017

NOTE: "FAIR" INDICATES FEW OR NO CLOUDS BELOW 12,000 FEET WITH NO
SIGNIFICANT WEATHER AND/OR NO OBSTRUCTIONS TO VISIBILITY.

NYZ032-033-038>043-046>054-057>066-NYZ062>081-082-084-221300-
EAST


CITY           SKY/WX    TMP DP  RH WIND       PRES   REMARKS
ALBANY         FOG       39  37  92 N3        29.76R VSB 1/2
GLENS FALLS    CLOUDY    38  35  89 N6        29.77R FOG     WCI  33
POUGHKEEPSIE   FOG       39  39 100 CALM      29.73S VSB 3/4
NEWBURGH       MOCLDY    39  39 100 CALM      29.74R FOG
MONTGOMERY     FOG       40  39  97 CALM      29.73R VSB 1/4
WHITE PLAINS   FOG       43  42  97 CALM      29.73R VSB 1/4
ISLIP          FOG       43  43 100 SE3       29.75R VSB 1/4
NEW YORK CITY  FOG       45  44  97 NE3       29.74R VSB 1
CENTRAL PARK   CLOUDY    43  43 100 NW3       29.76R FOG
$$

NYZ005>009-017-018-044>046-055-056-221300-
CENTRAL


CITY           SKY/WX    TMP DP  RH WIND       PRES   REMARKS
FULTON         FOG       36  34  92 CALM      29.70R VSB 1/4
SYRACUSE       MOCLDY    33  33 100 E3        29.70R FOG
ROME           MOCLDY    37  37 100 CALM      29.73R FOG
ELMIRA         FOG       39  37  92 CALM      29.71R VSB 1/4
BINGHAMTON     FOG       36  36 100 CALM      29.69R VSB 1/4
MONTICELLO     MOCLDY    37  36  93 CALM      29.72S
$$

NYZ026>034-041>043-087-221300-
NORTH


CITY           SKY/WX    TMP DP  RH WIND       PRES   REMARKS
WATERTOWN      PTCLDY    35  35 100 NE12      29.73R FOG     WCI  27
FORT DRUM      NOT AVBL
OGDENSBURG     CLOUDY    36  36  99 NE6       29.78R FOG     WCI  31
MASSENA        CLOUDY    34  33  96 NE10      29.81R FOG     WCI  26
SARANAC LAKE   CLOUDY    34  33  96 NE6       29.71R FOG     WCI  29
PLATTSBURGH    CLOUDY    33  33 100 N13       29.81R FOG     WCI  24
$$

NYZ001>004-010>016-019>021-085-221300-
WEST


CITY           SKY/WX    TMP DP  RH WIND       PRES   REMARKS
NIAGARA FALLS  FOG       36  33  89 E8        29.66F VSB 3/4 WCI  30
BUFFALO        MOCLDY    37  35  92 N8        29.66F FOG     WCI  31
DUNKIRK        PTCLDY    38  37  97 CALM      29.64F
JAMESTOWN        N/A     48  43  81 CALM      29.64F
WELLSVILLE     PTCLDY    44  43  96 CALM      29.68S FOG
ROCHESTER      FOG       40  40 100 NE3       29.71R VSB 1/4
PENN YAN       CLEAR     41  38  89 SW6       29.69R
$$

             KEY
       WCI = WIND CHILL INDEX
       VSB = VISIBILITY
       HX  = HEAT INDEX
$$




USA.gov is the U.S. government's official web portal to all federal, state and local government web resources and services.